RH
6 8 9 11 15 13 15 16 19 17 25 21 19 17 22 31 34 37 40 41 43 40 40 40 42 43 49 53 68 69 68 75 67 66 80 74 70 70 77 70 65 68 62 57
8 7 7 12 14 13 13 15 17 17 21 21 19 18 24 28 33 34 40 42 43 45 44 40 42 44 52 55 54 53 59 62 66 61 75 72 67 72 63 54 53 54 56 50
10 9 12 13 12 12 12 15 16 18 18 19 18 18 19 25 32 37 40 43 44 44 44 41 41 44 52 53 50 48 52 58 63 61 56 60 63 63 52 47 42 48 47 42
13 11 11 12 13 12 11 13 18 19 18 18 16 20 20 23 28 37 42 43 42 44 42 41 46 47 53 50 48 46 49 54 62 61 59 55 49 46 48 47 43 40 43 42
15 14 16 15 14 10 8 11 13 15 18 14 14 19 20 25 29 41 44 43 43 44 44 44 48 49 53 50 48 50 53 52 65 61 65 57 52 50 51 49 44 39 42 37
12 15 17 16 13 12 9 12 12 15 16 16 13 21 26 28 34 34 42 46 47 46 45 47 51 52 48 48 53 54 55 55 62 63 65 54 54 55 55 54 45 40 39 39
13 14 16 16 14 13 11 13 18 18 23 24 27 31 31 28 29 32 36 43 43 45 40 45 49 52 49 53 54 56 58 58 60 61 60 57 58 56 55 51 44 39 37 38
17 18 15 14 16 13 13 15 19 20 24 25 29 29 29 28 29 33 37 37 41 42 36 37 47 52 49 54 55 58 60 60 61 60 60 54 57 51 51 50 46 38 39 44
16 18 21 21 20 21 18 17 19 20 22 24 26 28 31 37 42 44 44 44 47 48 36 37 47 52 50 54 54 59 66 67 68 62 56 54 56 52 50 53 46 40 42 45
14 20 23 22 23 24 20 19 20 23 23 23 29 31 39 43 45 44 48 54 53 58 50 41 49 52 50 57 59 66 71 75 80 68 57 52 54 49 49 52 49 44 42 43
15 23 27 25 24 26 24 21 20 19 26 27 28 31 41 43 46 44 49 52 54 57 54 47 50 52 54 56 60 73 80 79 86 68 59 56 51 46 49 50 51 51 46 40
21 29 34 29 27 28 27 24 23 27 25 34 33 38 40 41 42 38 38 43 39 38 44 49 58 54 56 55 58 68 85 87 87 71 56 51 47 46 48 51 52 56 52 43
23 30 33 32 31 30 30 28 27 29 30 30 37 40 41 41 37 35 33 33 33 36 41 40 57 60 58 59 59 59 84 90 74 70 52 50 48 48 51 52 54 54 49 45
25 31 27 34 32 33 31 31 27 30 31 29 32 48 47 39 36 38 37 38 40 39 46 52 59 66 59 59 57 50 52 59 60 55 52 54 53 53 56 56 52 53 50 44
29 33 32 32 29 30 29 27 27 28 29 31 28 36 41 44 50 53 51 47 43 46 51 50 55 65 63 62 57 52 58 60 61 59 57 63 65 63 58 53 51 49 51 50
29 30 31 30 29 27 27 26 28 30 30 33 36 39 45 50 50 47 47 47 42 50 61 62 57 64 64 67 60 55 60 64 66 63 64 66 69 72 67 61 56 52 51 52
32 32 32 30 29 28 26 25 30 36 38 35 36 40 47 50 52 49 48 44 43 48 53 55 55 59 64 69 62 58 65 67 68 68 66 70 78 76 77 74 67 61 57 53
35 36 38 37 31 35 24 22 34 41 45 46 48 51 55 55 52 45 38 41 52 47 45 42 48 55 61 65 62 60 74 75 73 72 76 82 82 83 85 83 83 71 62 59
30 29 34 37 37 31 26 29 33 46 56 48 48 54 55 56 59 48 39 32 37 37 37 50 64 68 61 56 58 63 82 86 84 80 80 82 85 80 82 82 85 81 68 61
29 32 34 37 36 37 29 30 39 44 59 49 49 50 53 48 63 55 44 37 45 51 55 56 52 54 62 64 62 72 89 78 72 78 73 82 83 83 79 78 77 77 76 69
28 30 34 38 36 32 23 26 34 36 38 43 44 39 38 48 50 51 51 50 44 53 56 50 46 51 51 63 74 76 81 88 80 77 81 81 80 82 80 74 76 79 77 73
29 31 33 36 36 34 24 26 28 29 33 36 40 42 42 49 53 48 51 56 46 44 45 47 46 46 50 57 69 71 75 77 77 80 80 80 79 79 77 77 72 76 81 74
36 34 34 35 37 43 41 45 39 40 36 40 43 47 50 49 49 51 51 52 49 48 46 48 48 52 54 54 58 62 66 68 69 77 78 77 79 79 74 71 69 78 78 74
42 44 44 40 57 56 52 51 54 50 49 49 48 52 53 55 55 55 55 50 45 43 45 44 47 49 48 53 57 60 60 63 65 69 72 71 75 71 64 64 69 73 73 65
48 49 57 62 64 62 58 59 64 67 67 64 65 71 66 66 61 57 52 49 45 40 40 45 48 48 47 47 53 57 60 61 64 66 64 64 63 58 59 65 67 63 59 62
59 58 63 71 70 70 66 66 65 66 66 64 63 76 79 68 57 53 50 46 43 41 39 42 45 45 48 50 51 50 50 51 50 49 48 49 54 59 62 60 56 58 62 63